Location: Heilbronn
(49.1548°N, 9.2780°E)
Time: 03:43:15
(UTC+02:00)

ISS - Pass Details

Date: 05 January 2018
Orbit: 401 x 409 km, 51.6° (Epoch: 20 August)

Event Time Altitude Azimuth Distance (km) Brightness Sun altitude
Exits shadow 06:03:19 53° 26° (NNE) 530 -3.3 -20.9°
Drops below altitude 10° 06:06:22 10° 73° (ENE) 1,549 0.0 -20.4°
Sets 06:08:25 0° 78° (ENE) 2,385 1.2 -20.1°
